COSMOS 894

导读 | 豆包AI

COSMOS 894是苏联(CIS)于1977年2月21日08:00发射的人造卫星,隶属于冷战时期苏联规模庞大的“宇宙”(COSMOS)卫星系列。该系列涵盖军事侦察、空间科学探测等多种任务,多数军用卫星任务细节因保密未公开。作为美苏太空争霸阶段的产物,它体现了当时苏联在航天领域的部署能力,推动了苏联太空技术积累,最终完成任务后再入大气层销毁。

基本信息
目录编号:
9846
目录名称:
COSMOS 894
国际标识:
1977-013A
轨道中心:
EARTH
卫星名称:
COSMOS 894
卫星全名:
--
卫星状态:
在轨 (已飞行17918 天)
发射日期:
1977-02-21 UTC
国别 :
俄罗斯(独联体) (CIS)
星等 :
--
轨道信息
数据来源 国际轨道数据 AOE轨道数据
星历时间 2026-03-13T15:04:53+0800
18小时前
查看轨道信息
2026-03-10T11:00:00+0800
3天前
查看轨道信息
半长轴 7362.669km 7362.675km
偏心率 0.0031209 0.0030987
轨道倾角 82.947° 82.948°
近地点辐角 115.430° 124.275°
升交点赤经 168.104° 170.446°
平近点角 298.685° 95.992°
近地点 961.553km 961.723km
远地点 1007.511km 1007.353km
周期 104.788分钟 104.788分钟
每日圈数 13.741999 13.741981
详细信息
使用方式:
暂无
2D轨道图
3D轨道图
轨道高度分析图
轨道倾角分析图
轨道综合分析图
查看轨道综合分析图